Hourly Data Report for September 19, 2020

SHEARWATER RCS
NOVA SCOTIA
Current Station Operator: ECCC - MSC

44°37'47.000" N
63°30'48.000" W
24.00 m
8205092
71264
AAW

Download Data

Hourly Data (September 2020)
Hourly Data Report for September 19, 2020
TIME Temp Definition
°C
Dew Point Definition
°C
Rel Hum Definition
%
Wind Dir Definition
10's deg

Wind Spd Definition
km/h
Visibility Definition
km
Stn Press Definition
kPa
Hmdx Definition


Wind Chill Definition


Weather Definition


00:00 10.3 5.8 73 35 16   101.00     LegendNANA
01:00 10.4 5.0 69 35 19   101.04     LegendNANA
02:00 10.3 5.2 71 35 18   101.08     LegendNANA
03:00 10.1 5.6 73 35 13   101.09     LegendNANA
04:00 10.0 5.0 71 34 15   101.17     LegendNANA
05:00 9.9 4.5 69 35 16   101.24     LegendNANA
06:00 9.9 4.4 69 34 14   101.32     LegendNANA
07:00 10.0 3.8 65 34 16   101.42     LegendNANA
08:00 11.2 4.0 61 34 17   101.50     LegendNANA
09:00 12.1 3.8 57 35 21   101.54     LegendNANA
10:00 12.9 2.2 48 35 22   101.57     LegendNANA
11:00 14.0 1.9 44 33 21   101.59     LegendNANA
12:00 15.0 2.9 44 34 18   101.57     LegendNANA
13:00 15.4 1.9 40 33 22   101.62     LegendNANA
14:00 15.2 1.1 38 36 19   101.65     LegendNANA
15:00 15.2 0.1 36 35 18   101.73     LegendNANA
16:00 15.9 0.7 36 1 14   101.75     LegendNANA
17:00 14.8 1.1 39 1 14   101.84     LegendNANA
18:00 12.9 1.5 46 36 13   101.92     LegendNANA
19:00 11.0 2.1 54 36 9   102.01     LegendNANA
20:00 10.5 1.9 55 36 11   102.12     LegendNANA
21:00 10.1 2.1 57 36 10   102.18     LegendNANA
22:00 9.1 2.3 62 1 9   102.21     LegendNANA
23:00 8.4 2.2 65 2 7   102.25     LegendNANA

Notes on Data Quality.

Legend

  • E = Estimated
  • M = Missing
  • NA = Not Available*
  • [empty] = Indicates an unobserved value
Date modified: